Location: Peebles
(55.6412°N, 3.1714°W)
Time: 11:42:09
(UTC+01:00)

IRIDIUM 33 DEB - Pass Details

Date: 30 June 2022
Orbit: 580 x 634 km, 86.4° (Epoch: 16 August)

Event Time Altitude Azimuth Distance (km) Brightness Sun altitude
Rises 02:22:51 0° 1° (N) 2,819 ? -9.9°
Reaches altitude 10° 02:25:17 10° 12° (NNE) 1,912 ? -9.8°
Maximum altitude 02:28:57 29° 74° (ENE) 1,083 ? -9.7°
Drops below altitude 10° 02:32:38 10° 135° (SE) 1,906 ? -9.5°
Sets 02:35:02 0° 147° (SSE) 2,807 ? -9.4°
Enters shadow 02:35:03 - 147° (SSE) 2,813 ? -9.4°
